Regional Weather Roundup
Issued by NWS

Home | Current Version | Previous Version | Graphics & Text | Print | Product List | Glossary On
Versions: 1 2 3 4 5 6 7 8 9 10 11 12 13 14 15 16 17 18 19 20 21 22 23 24 25 26 27 28 29 30 31 32 33 34 35 36 37 38 39 40 41 42 43 44 45 46 47 48 49 50
174
ASUS44 KJAN 220703
RWRMS

MISSISSIPPI HOURLY WEATHER ROUNDUP
NATIONAL WEATHER SERVICE JACKSON MS
100 AM CST MON DEC 22 2014

NOTE: "FAIR: INDICATES FEW OR NO CLOUDS BELOW 12,000 FEET WITH NO
SIGNIFICANT WEATHER AND/OR OBSTRUCTIONS TO VISIBILITY.

MSZ001>002-007>008-010>013-018>021-025>028-034>036-220800-
NORTHWEST MISSISSIPPI

CITY           SKY/WX    TMP DP  RH WIND       PRES   REMARKS
CLARKSDALE     CLOUDY    46  46 100 SE13      29.91S
CLEVELAND      CLOUDY    48  48 100 S14G21    29.89F FOG
GREENWOOD      CLOUDY    51  47  86 SE9       29.91F
GREENVILLE     CLOUDY    49  48  97 S12       29.89F FOG
GRENADA        CLOUDY    46  46 100 SE7       29.93F
OLIVE BRANCH   CLOUDY    45  45 100 SE15      29.91F
OXFORD         CLOUDY    45  43  93 SE5       29.94F FOG
TUNICA         PTSUNNY   45  43  93 SE16      29.91F
$$

MSZ003>006-009-014>017-022>024-029>033-037>039-220800-
NORTHEAST MISSISSIPPI

CITY           SKY/WX    TMP DP  RH WIND       PRES   REMARKS
COLUMBUS AFB   CLOUDY    49  47  93 E2        29.96F
CORINTH        CLOUDY    48  43  81 SE8       29.94F
GOLDN TRIANGLE CLOUDY    50  46  87 SE8       29.96F
STARKVILLE     CLOUDY    48  46  93 SE6       29.96F FOG
TUPELO         CLOUDY    48  45  89 S6        29.95F
$$

MSZ040-058-220800-
CENTRAL MISSISSIPPI

CITY           SKY/WX    TMP DP  RH WIND       PRES   REMARKS
JACKSON INTL   CLOUDY    51  49  92 SE7       29.92F
JACKSON HAWKNS CLOUDY    51  48  89 SE9       29.93S FOG
MERIDIAN KEY   CLOUDY    51  49  92 SE6       29.96F
MERIDIAN NAS   CLOUDY    49  48  97 E6        29.96F FOG
RAYMOND        CLOUDY    50  46  87 SE6       29.93S FOG
VICKSBURG      MOCLDY    50  47  89 SE12      29.90F
$$

MSZ059>079-220800-
SOUTH MISSISSIPPI

CITY           SKY/WX    TMP DP  RH WIND       PRES   REMARKS
HATTIESBURG    CLOUDY    53  52  96 E3        29.94F FOG
MCCOMB         FOG       52  51  97 SE8       29.93S VSB 1
NATCHEZ        CLOUDY    52  48  87 SE9       29.90F
PINE BELT      CLOUDY    52  48  87 E3        29.94F
$$

MSZ080>082-220800-
COASTAL MISSISSIPPI

CITY           SKY/WX    TMP DP  RH WIND       PRES   REMARKS
BILOXI         CLOUDY    56  56 100 E6        29.93F
PASCAGOULA     CLOUDY    57  55  93 E3        29.95S
GULFPORT       CLOUDY    56  54  93 E6        29.93F FOG
$$



USA.gov is the U.S. government's official web portal to all federal, state and local government web resources and services.